Kamloops, British Columbia

1:33 PM PST on February 27, 2017 (GMT -0800)
Kamloops

Weather History for CYKA - March, 2013

Change the Weather History Date:

Saturday, March 16, 2013

  Actual Average Record
Temperature  
Mean Temperature 42 °F -  
Max Temperature 52 °F 56 °F 59 °F (2003)
Min Temperature 31 °F 33 °F 15 °F (2002)
Degree Days  
Heating Degree Days 24    
Moisture  
Dew Point 33 °F    
Average Humidity 71    
Maximum Humidity 87    
Minimum Humidity 37    
Precipitation  
Precipitation 0.04 in 0.02 in - ()
Sea Level Pressure  
Sea Level Pressure 29.81 in    
Wind  
Wind Speed 5 mph ()    
Max Wind Speed 32 mph    
Max Gust Speed 38 mph    
Visibility 15.0 miles    
Events Rain    
Averages and records for this station are not official NWS values.
T = Trace of Precipitation, MM = Missing Value Source: Averaged Metar Reports

Daily Weather History Graph

Daily Weather History Graph

Search for Another Location

Airport or City:

Trip Planner

Search our weather history database for the weather conditions in past years. The results will help you decide how hot, cold, wet, or windy it might be!

Date:

Astronomy

Mar. 16, 2013 Rise Set
Actual Time 7:12 AM PDT 7:08 PM PDT
Civil Twilight 6:39 AM PDT 7:41 PM PDT
Nautical Twilight 6:01 AM PDT 8:20 PM PDT
Astronomical Twilight 5:22 AM PDT 8:59 PM PDT
Moon 9:13 AM PDT (3/16) No Moon Set
Length of Visible Light 13h 01m
Length of Day
11h 56m
Waxing Crescent, 24% of the Moon is Illuminated
Mar 16
Waxing Crescent
Mar 19
First Quarter
Mar 27
Full
Apr 2
Last Quarter
Apr 10
New

Hourly Weather History & Observations

Time (PDT) Temp. Windchill Dew Point Humidity Pressure Visibility Wind Dir Wind Speed Gust Speed Precip Events Conditions
12:00 AM 42.8 °F 40.1 °F 32.0 °F 66% 30.01 in 40.0 mi SW 4.6 mph - N/A   Mostly Cloudy
1:00 AM 39.2 °F 37.0 °F 30.2 °F 70% 29.99 in 40.0 mi WNW 3.5 mph - N/A   Mostly Cloudy
2:00 AM 39.2 °F 37.0 °F 32.0 °F 75% 29.99 in 40.0 mi SSE 3.5 mph - N/A   Scattered Clouds
3:00 AM 39.2 °F - 30.2 °F 70% 29.98 in 40.0 mi WSW 2.3 mph - N/A   Partly Cloudy
4:00 AM 33.8 °F - 30.2 °F 87% 29.98 in 40.0 mi Calm Calm - N/A   Partly Cloudy
5:00 AM 36 °F - 30 °F 72% 29.96 in 37 mi East 4.6 mph - -   Clear
5:00 AM 35.6 °F 31.7 °F 30.2 °F 81% 29.96 in 40.0 mi East 4.6 mph - N/A   Partly Cloudy
6:00 AM 32.0 °F - 28.4 °F 87% 29.94 in 40.0 mi NNE 2.3 mph - N/A   Partly Cloudy
7:00 AM 33.8 °F - 30.2 °F 87% 29.93 in 40.0 mi Calm Calm - N/A   Mostly Cloudy
8:00 AM 35.6 °F 32.8 °F 32.0 °F 87% 29.92 in 40.0 mi East 3.5 mph - N/A   Mostly Cloudy
9:00 AM 37.4 °F 34.9 °F 32.0 °F 81% 29.90 in 40.0 mi East 3.5 mph - N/A   Overcast
10:00 AM 37.4 °F - 32.0 °F 81% 29.88 in 40.0 mi East 2.3 mph - N/A   Overcast
11:00 AM 40 °F - 32 °F 65% 29.86 in 37 mi Calm Calm - -   Overcast
11:00 AM 41.0 °F - 32.0 °F 70% 29.86 in 40.0 mi Calm Calm - N/A   Overcast
12:00 PM 44.6 °F - 33.8 °F 66% 29.82 in 40.0 mi Calm Calm - N/A   Overcast
1:00 PM 44.6 °F - 33.8 °F 66% 29.78 in 40.0 mi Calm Calm - N/A   Overcast
2:00 PM 46.4 °F - 33.8 °F 62% 29.74 in 40.0 mi Calm Calm - N/A   Overcast
3:00 PM 48.2 °F - 35.6 °F 62% 29.69 in 40.0 mi WSW 3.5 mph - N/A   Overcast
4:00 PM 50.0 °F - 33.8 °F 54% 29.66 in 40.0 mi SSW 2.3 mph - N/A   Overcast
5:00 PM 51 °F - 33 °F 37% 29.62 in 37 mi ENE 6.9 mph - -   Overcast
5:00 PM 51.8 °F - 32.0 °F 47% 29.62 in 40.0 mi ENE 6.9 mph - N/A   Overcast
6:00 PM 48.2 °F - 33.8 °F 58% 29.60 in 40.0 mi WNW 17.3 mph - N/A   Overcast
7:00 PM 46.4 °F 40.1 °F 33.8 °F 62% 29.60 in 40.0 mi West 15.0 mph - N/A   Overcast
8:00 PM 46.4 °F 40.7 °F 33.8 °F 62% 29.62 in 40.0 mi West 12.7 mph - N/A   Overcast
8:17 PM - - - N/A% - 30.0 mi West 16.1 mph - N/A Rain Light Rain Showers
8:28 PM - - - N/A% - 20.0 mi West 32.2 mph 38.0 mph N/A Rain Light Rain Showers
9:00 PM 41.0 °F 33.9 °F 35.6 °F 81% 29.66 in 20.0 mi NW 12.7 mph 24.2 mph N/A Rain Light Rain Showers
10:00 PM 41.0 °F 32.2 °F 33.8 °F 76% 29.67 in 15.0 mi West 18.4 mph - N/A Rain Light Rain Showers
11:00 PM 40 °F - 35 °F 75% 29.68 in 10 mi West 11.5 mph - - Rain Light Rain Showers
11:00 PM 39.2 °F 32.0 °F 35.6 °F 87% 29.68 in 10.0 mi West 11.5 mph - N/A Rain Light Rain Showers
11:35 PM - - - N/A% - 25.0 mi West 10.4 mph - N/A   Overcast